| time (UTC) | temp C | wind direction | speed KPH | gust KPH | rain 1hr cm | rain 24hr cm | rain mn cm | humidity % | barometer mb |
| 20260505124539 | 6 | 32 | 3.2 | 6.4 | 0.00 | 0.00 | 0.00 | 50 | 1003.5 |
| 20260505123024 | 6 | 32 | 6.4 | 9.7 | 0.00 | 0.00 | 0.00 | 49 | 1003.1 |
| 20260505121532 | 7 | 47 | 0.0 | 1.6 | 0.00 | 0.00 | 0.00 | 46 | 1003.1 |
| 20260505120023 | 7 | 47 | 0.0 | 9.7 | 0.00 | 0.00 | 0.00 | 45 | 1003.3 |
| 20260505114518 | 8 | 231 | 0.0 | 11.3 | 0.00 | 0.00 | 0.00 | 44 | 1003.5 |
| 20260505113018 | 8 | 337 | 0.0 | 9.7 | 0.00 | 0.00 | 0.00 | 44 | 1003.3 |
| 20260505111517 | 8 | 359 | 4.8 | 8.0 | 0.00 | 0.00 | 0.00 | 44 | 1003.2 |
| 20260505101508 | 9 | 213 | 8.0 | 12.9 | 0.00 | 0.00 | 0.00 | 40 | 1002.7 |
| 20260505100016 | 10 | 218 | 8.0 | 12.9 | 0.00 | 0.00 | 0.00 | 37 | 1002.9 |
| 20260505094507 | 10 | 258 | 11.3 | 19.3 | 0.00 | 0.00 | 0.00 | 35 | 1003.0 |
| 20260505093004 | 11 | 280 | 6.4 | 12.9 | 0.00 | 0.00 | 0.00 | 34 | 1003.0 |
| 20260505091506 | 10 | 305 | 0.0 | 4.8 | 0.00 | 0.00 | 0.00 | 34 | 1003.4 |
| 20260505090002 | 11 | 170 | 1.6 | 8.0 | 0.00 | 0.00 | 0.00 | 33 | 1003.6 |
| 20260505084500 | 11 | 97 | 1.6 | 6.4 | 0.00 | 0.00 | 0.00 | 34 | 1003.7 |
| 20260505083200 | 11 | 186 | 6.4 | 22.5 | 0.00 | 0.00 | 0.00 | 33 | 1004.0 |
| 20260505081600 | 11 | 244 | 16.1 | 29.0 | 0.00 | 0.00 | 0.00 | 32 | 1004.1 |
| 20260505080057 | 11 | 255 | 20.9 | 32.2 | 0.00 | 0.00 | 0.00 | 32 | 1003.8 |
| 20260505074555 | 11 | 249 | 24.1 | 30.6 | 0.00 | 0.00 | 0.00 | 32 | 1003.9 |
| 20260505073059 | 10 | 221 | 9.7 | 14.5 | 0.00 | 0.00 | 0.00 | 37 | 1003.8 |
| 20260505071549 | 10 | 137 | 4.8 | 9.7 | 0.00 | 0.00 | 0.00 | 38 | 1003.4 |
| 20260505070045 | 10 | 60 | 3.2 | 4.8 | 0.00 | 0.00 | 0.00 | 36 | 1003.1 |
| 20260505064543 | 11 | 206 | 0.0 | 4.8 | 0.00 | 0.00 | 0.00 | 34 | 1003.1 |
| 20260505063048 | 11 | 249 | 3.2 | 8.0 | 0.00 | 0.00 | 0.00 | 33 | 1002.9 |
| 20260505061541 | 11 | 193 | 1.6 | 4.8 | 0.00 | 0.00 | 0.00 | 33 | 1002.8 |
| 20260505060037 | 10 | 57 | 1.6 | 8.0 | 0.00 | 0.00 | 0.00 | 34 | 1002.7 |
| 20260505054549 | 10 | 31 | 6.4 | 8.0 | 0.00 | 0.00 | 0.00 | 33 | 1002.9 |
| 20260505053044 | 12 | 191 | 0.0 | 9.7 | 0.00 | 0.00 | 0.00 | 28 | 1002.9 |
| 20260505051543 | 13 | 225 | 6.4 | 9.7 | 0.00 | 0.00 | 0.00 | 28 | 1002.9 |
| 20260505041546 | 12 | 289 | 3.2 | 8.0 | 0.00 | 0.00 | 0.00 | 26 | 1003.3 |
| 20260505040039 | 13 | 15 | 4.8 | 6.4 | 0.00 | 0.00 | 0.00 | 26 | 1003.0 |
| 20260505034536 | 13 | 273 | 0.0 | 12.9 | 0.00 | 0.00 | 0.00 | 24 | 1003.1 |
| 20260505033032 | 13 | 274 | 4.8 | 14.5 | 0.00 | 0.00 | 0.00 | 24 | 1003.0 |
| 20260505031537 | 14 | 268 | 6.4 | 11.3 | 0.00 | 0.00 | 0.00 | 23 | 1002.6 |
| 20260505030038 | 14 | 303 | 8.0 | 11.3 | 0.00 | 0.00 | 0.00 | 23 | 1002.5 |
| 20260505024531 | 14 | 328 | 8.0 | 9.7 | 0.00 | 0.00 | 0.00 | 22 | 1002.3 |
| 20260505023032 | 14 | 322 | 11.3 | 14.5 | 0.00 | 0.00 | 0.00 | 23 | 1002.4 |
| 20260505021530 | 14 | 330 | 6.4 | 9.7 | 0.00 | 0.00 | 0.00 | 23 | 1002.2 |
| 20260505020043 | 15 | 303 | 8.0 | 22.5 | 0.00 | 0.00 | 0.00 | 22 | 1002.2 |
| 20260505014530 | 15 | 253 | 17.7 | 25.7 | 0.00 | 0.00 | 0.00 | 21 | 1002.1 |
| 20260505013029 | 15 | 266 | 12.9 | 25.7 | 0.00 | 0.00 | 0.00 | 20 | 1001.8 |
| 20260505011528 | 16 | 267 | 19.3 | 37.0 | 0.00 | 0.00 | 0.00 | 19 | 1001.9 |
| 20260505010034 | 16 | 273 | 24.1 | 40.2 | 0.00 | 0.00 | 0.00 | 19 | 1002.2 |
| 20260505004527 | 16 | 256 | 35.4 | 49.9 | 0.00 | 0.00 | 0.00 | 17 | 1001.9 |
| 20260505003029 | 17 | 236 | 35.4 | 48.3 | 0.00 | 0.00 | 0.00 | 17 | 1002.2 |
| 20260505001527 | 17 | 240 | 29.0 | 43.5 | 0.00 | 0.00 | 0.00 | 16 | 1002.2 |
| 20260505000029 | 17 | 226 | 29.0 | 46.7 | 0.00 | 0.00 | 0.00 | 16 | 1002.2 |
| 20260504234525 | 17 | 275 | 30.6 | 48.3 | 0.00 | 0.00 | 0.00 | 16 | 1002.0 |
| 20260504233026 | 17 | 239 | 37.0 | 48.3 | 0.00 | 0.00 | 0.00 | 16 | 1001.9 |
| 20260504231526 | 17 | 235 | 41.8 | 56.3 | 0.00 | 0.00 | 0.00 | 16 | 1001.9 |
| 20260504230024 | 18 | 240 | 33.8 | 51.5 | 0.00 | 0.00 | 0.00 | 16 | 1001.9 |
| 20260504224525 | 17 | 218 | 35.4 | 53.1 | 0.00 | 0.00 | 0.00 | 17 | 1001.6 |
| 20260504223023 | 18 | 243 | 37.0 | 49.9 | 0.00 | 0.00 | 0.00 | 17 | 1001.8 |
| 20260504221524 | 18 | 240 | 30.6 | 46.7 | 0.00 | 0.00 | 0.00 | 18 | 1001.8 |
| 20260504220020 | 18 | 205 | 12.9 | 49.9 | 0.00 | 0.00 | 0.00 | 19 | 1002.0 |
| 20260504214534 | 18 | 235 | 22.5 | 49.9 | 0.00 | 0.00 | 0.00 | 18 | 1002.2 |
| 20260504213016 | 17 | 249 | 29.0 | 51.5 | 0.00 | 0.00 | 0.00 | 20 | 1002.6 |
| 20260504211514 | 17 | 232 | 27.4 | 43.5 | 0.00 | 0.00 | 0.00 | 20 | 1002.7 |
| 20260504210018 | 17 | 246 | 24.1 | 45.1 | 0.00 | 0.00 | 0.00 | 21 | 1002.6 |
| 20260504204512 | 17 | 242 | 29.0 | 40.2 | 0.00 | 0.00 | 0.00 | 21 | 1003.1 |
| 20260504203008 | 17 | 237 | 30.6 | 41.8 | 0.00 | 0.00 | 0.00 | 24 | 1003.3 |
| 20260504201509 | 17 | 234 | 20.9 | 45.1 | 0.00 | 0.00 | 0.00 | 24 | 1003.3 |
| 20260504200013 | 17 | 214 | 27.4 | 49.9 | 0.00 | 0.00 | 0.00 | 25 | 1003.3 |
| 20260504194508 | 17 | 222 | 27.4 | 40.2 | 0.00 | 0.00 | 0.00 | 27 | 1003.6 |
| 20260504193002 | 16 | 250 | 17.7 | 30.6 | 0.00 | 0.00 | 0.00 | 28 | 1003.6 |
| 20260504191624 | 16 | 162 | 14.5 | 38.6 | 0.00 | 0.00 | 0.00 | 31 | 1003.8 |
| 20260504190059 | 16 | 243 | 33.8 | 45.1 | 0.00 | 0.00 | 0.00 | 29 | 1004.0 |
| 20260504184555 | 16 | 222 | 19.3 | 35.4 | 0.00 | 0.00 | 0.00 | 31 | 1003.9 |
| 20260504183053 | 16 | 218 | 11.3 | 33.8 | 0.00 | 0.00 | 0.00 | 31 | 1004.3 |
| 20260504181553 | 16 | 173 | 14.5 | 32.2 | 0.00 | 0.00 | 0.00 | 34 | 1004.7 |
| 20260504180049 | 15 | 168 | 11.3 | 30.6 | 0.00 | 0.00 | 0.00 | 35 | 1004.6 |
| 20260504174548 | 15 | 213 | 17.7 | 27.4 | 0.00 | 0.00 | 0.00 | 36 | 1004.8 |
| 20260504173043 | 15 | 245 | 25.7 | 35.4 | 0.00 | 0.00 | 0.00 | 37 | 1005.2 |
| 20260504171540 | 14 | 158 | 9.7 | 24.1 | 0.00 | 0.00 | 0.00 | 44 | 1005.4 |